Tracking 31027 objects as of 19-Jul-2025
HD Live streaming from Space Station
objects crossing your sky now

ONEWEB-0320

Track ONEWEB-0320 now!
10-day predictions
ONEWEB-0320 is classified as:


NORAD ID: 49190
Int'l Code: 2021-083E
Perigee: 1,195.5 km
Apogee: 1,198.2 km
Inclination: 87.9 °
Period: 109.2 minutes
Semi major axis: 7567 km
RCS: Unknown
Launch date: September 14, 2021
Source: United Kingdom (UK)
Launch site: TYURATAM MISSILE AND SPACE COMPLEX (TTMTR)
Your satellite tracking list
LANDSAT 5
Track 1 satellite(s)




NASA's NSSDC Master Catalog

Two Line Element Set (TLE):
1 49190U 21083E   25199.51998407  .00000039  00000-0  66339-4 0  9999
2 49190  87.9122  41.7581 0001787  86.9481 273.1856 13.18685163186008
Source of the keplerian elements: AFSPC